www.pogodaiklimat.ru

Погода и климат >> Архив погоды >> Россия >> Ненецкий АО >> Хорей-Вер


ПОГОДА в Хорей-Вере

  • Прогноз погоды в Хорей-Вере
  • Монитор погоды в Хорей-Вере

АРХИВ ПОГОДЫ в Хорей-Вере

Время (UTC), дата Ветер
(напр.,м/с)
 
Видим.   Явления Облачность Т
(С)
Тd
(С)
f
(%)
Тe
(С)
Тes
(С)
Комфортность P
(гПа)
Po
(гПа)
Тmin
(С)
Tmax
(С)
R
(мм)
R24
(мм)
S
(см)
12 12.06 С 8-12
{14}
20 км {ливн. осадки} 10/9 300 м
[Cb cap As trans]
+4.3 +0.2 75 -2 -2 1006.0 997.3
15 12.06 С 6-11
{13}
20 км в посл. час ливневой снег 10/9 300 м
[Cb cap Ac As]
+2.4 -0.1 84 -4 -4 1006.3 997.5 +5.8 0.0
18 12.06 С 4
{13}
20 км {ливн. осадки} 10/4 300 м
[St Ac As Ci sp]
+1.5 -0.3 88 -4 -4 1006.6 997.7
21 12.06 СЗ 5 20 км в посл. час ливневой снег 10/10 300 м
[Cb cap]
+0.9 -0.4 91 -5 -5 1005.5 996.6
00 13.06 СЗ 7-11
{11}
10 км дымка {ливн. осадки} 10/10 200 м
[St]
+0.7 -0.7 90 -6 -6 1003.7 994.8
03 13.06 С 9-14
{14}
4000 м слаб. снег 10/0
[As trans]
+0.8 -0.4 92 -7 -7 1003.6 994.7 +0.4 0.7
06 13.06 С 10
{16}
20 км в посл. час ливневой снег 9/9 300 м
[Cb cap]
+2.3 +0.5 88 -5 -5 1004.9 996.1
09 13.06 С 8-13
{17}
н/о н/о +3.1 -0.6 77 -3 -3 1006.6 997.8
12 13.06 С 10-13
{17}
20 км 9/9 300 м
[Cb cap]
+3.1 -0.5 77 -4 -4 1007.2 998.4
15 13.06 С 6
{13}
10 км слаб. ливневой дождь 10/8 300 м
[Cb cap As op]
+1.5 +0.2 91 -5 -5 1007.2 998.3 +4.0 0.6
18 13.06 С 4 4000 м снег {ливн. осадки} 10/0 300 м
[As op]
+0.4 -0.0 97 -5 -5 1007.0 998.1
21 13.06 С 5 4000 м слаб. снег 9/5 300 м
[Sc diur, vesp As op Ci sp]
+0.3 -0.2 96 -6 -6 1007.0 998.1
00 14.06 С 5 н/о н/о +0.7 +0.1 96 -5 -5 1007.0 998.1
03 14.06 С 7-10
{12}
20 км 10/10 200 м
[St]
+1.5 +0.2 91 -5 -5 1007.5 998.6 +0.2 0.5
06 14.06 С 6
{11}
20 км 9/9 300 м
[Cb cap]
+3.5 -0.5 75 -2 -2 1007.6 998.8
09 14.06 С 6
{11}
20 км 9/9 300 м
[Cb cap]
+4.4 +0.9 78 -1 -0 1007.7 998.9
12 14.06 СЗ 7-11
{13}
20 км {ливн. осадки} 10/10 300 м
[Cb cap]
+4.2 -0.9 69 -1 -1 1007.8 999.0
15 14.06 СЗ 4
{12}
20 км в посл. час ливневой дождь 10/10 300 м
[Cb cap]
+3.7 +1.1 83 -1 -1 1006.8 998.0 +5.3 0.0
18 14.06 СЗ 4 20 км в посл. час ливневой дождь 10/8 300 м
[Cb cap As op]
+3.0 +1.0 87 -2 -2 1004.6 995.8
21 14.06 З 6 10 км слаб. дождь 10/6 300 м
[Frnb As op]
+2.2 +1.5 95 -4 -4 1002.3 993.5
00 15.06 З 6
{10}
н/о н/о +2.2 +1.6 96 -4 -4 1000.4 991.6
03 15.06 СЗ 5 4000 м слаб. дождь 10/5 300 м
[Frnb As op]
+2.2 +1.3 94 -3 -3 999.6 990.8 +1.9 3
06 15.06 СЗ 5 20 км в посл. час ливневой дождь 10/9 300 м
[Cb cap As op]
+3.3 +0.9 84 -2 -2 999.9 991.2 +1.6
09 15.06 СЗ 6
{11}
20 км {ливн. осадки} 9/8 300 м
[Cb cap Ac As]
+3.9 -0.1 75 -1 -1 1001.0 992.3
12 15.06 СЗ 6
{10}
20 км {ливн. осадки} 9/9 300 м
[Cb cap]
+4.8 -1.0 66 0 0 1001.5 992.8
15 15.06 С 6
{12}
20 км 10/10 300 м
[Cb cap]
+3.3 -0.8 74 -2 -2 1002.3 993.5 +5.3 0.5
18 15.06 СЗ 3
{11}
20 км {ливн. осадки} 9/9 600 м
[Sc]
+2.1 -1.0 80 -2 -2 1002.1 993.3
21 15.06 З 4 10 км слаб. снег 10/0
[As op]
+1.4 -0.1 90 -4 -4 1000.8 992.0
00 16.06 З 6 10 км слаб. дождь 10/0
[As op]
+2.0 +1.4 96 -4 -4 999.2 990.4
03 16.06 З 6 10 км слаб. дождь 10/10 300 м
[Frnb Ns]
+2.8 +1.9 94 -3 -3 998.0 989.2 +1.2 2
06 16.06 З 6-10
{10}
10 км слаб. дождь 10/10 300 м
[Frnb Ns]
+4.8 +3.4 91 -1 -1 996.7 988.0
09 16.06 З 5
{10}
4000 м слаб. дождь 10/10 300 м
[Frnb Ns]
+5.7 +4.0 89 +1 +1 995.8 987.2
12 16.06 З 5
{12}
4000 м слаб. дождь 10/10 300 м
[Frnb Ns]
+5.7 +4.2 90 +1 +1 995.7 987.1
15 16.06 СЗ 5 10 км слаб. ливневой дождь 10/10 300 м
[Cb cap]
+4.7 +2.4 85 -0 -0 995.9 987.3 +6.3 3
18 16.06 СЗ 5 4000 м слаб. дождь 10/10 300 м
[Frnb Ns]
+1.9 +1.1 94 -4 -4 996.2 987.5
21 16.06 СЗ 6-11
{11}
10 км слаб. дождь 10/8 300 м
[Frnb As op]
+1.9 +1.1 94 -4 -4 995.1 986.3
00 17.06 З 5
{11}
н/о н/о +1.8 +1.2 96 -4 -4 994.8 986.1
03 17.06 З 7-12
{12}
20 км в посл. час дождь 10/10 300 м
[Frnb]
+2.5 +1.1 90 -4 -4 994.8 986.1 +0.9 5
06 17.06 СЗ 6
{12}
20 км {дождь} 10/10 300 м
[Frnb]
+3.7 +1.2 84 -2 -2 995.7 987.0
09 17.06 СЗ 5
{13}
4000 м слаб. ливневой дождь 10/10 300 м
[Cb cap]
+3.9 +1.9 87 -1 -1 996.8 988.1
12 17.06 СЗ 7-14
{14}
4000 м слаб. ливневой дождь 10/10 300 м
[Cb cap]
+4.7 +2.3 84 -1 -1 997.9 989.2
15 17.06 З 6
{13}
20 км в посл. час ливневой дождь 9/9 300 м
[Cb cap]
+3.9 +1.4 84 -2 -1 998.7 990.0 +6.6 1
18 17.06 СЗ 4
{11}
20 км в посл. час ливневой дождь 10/10 300 м
[Sc diur, vesp]
+2.8 +1.1 89 -2 -2 998.1 989.4
21 17.06 СЗ 5
{10}
20 км в посл. час ливневой дождь 10/10 300 м
[Cb cap]
+1.6 +0.5 92 -4 -4 997.3 988.6
00 18.06 З 5 20 км {ливн. осадки} 10/10 300 м
[Cb cap]
+1.8 +0.5 91 -4 -4 997.2 988.4
03 18.06 СЗ 6
{12}
20 км в посл. час ливневой дождь 9/9 300 м
[Cb cap]
+2.3 -0.0 85 -4 -3 997.4 988.7 +0.9 0.8
06 18.06 СЗ 7-12
{12}
20 км в посл. час ливневой дождь 9/9 300 м
[Cb cap]
+4.8 +1.2 77 -1 -0 997.3 988.6
09 18.06 СЗ 7-11
{15}
20 км {ливн. осадки} 10/10 300 м
[Cb cap]
+4.7 +0.8 76 -1 -1 999.2 990.5
12 18.06 СЗ 8-12
{15}
20 км в посл. час ливневой дождь 10/10 300 м
[Cb cap]
+3.4 +1.8 89 -3 -3 1000.8 992.1
15 18.06 СЗ 7-10
{13}
10 км слаб. ливневой дождь 10/10 300 м
[Cb cap]
+2.8 +1.9 94 -4 -4 1001.9 993.2 +5.8 0.9
18 18.06 СЗ 5
{12}
4000 м слаб. дождь 10/10 200 м
[Frnb Ns]
+2.5 +1.9 96 -3 -3 1002.1 993.3
21 18.06 СЗ 5
{11}
20 км {дождь} 10/10 200 м
[Sc diur, vesp]
+2.3 +1.4 94 -3 -3 1002.3 993.5
00 19.06 СЗ 6
{10}
20 км {дождь} 10/10 200 м
[St]
+1.8 +1.1 95 -5 -5 1002.9 994.1
03 19.06 СЗ 4 20 км 10/10 300 м
[Cb cap]
+2.6 +0.4 85 -2 -2 1003.3 994.5 +1.5 1
06 19.06 СЗ 5 20 км 10/10 300 м
[Cb cap]
+3.6 +1.2 84 -2 -2 1003.7 994.9
09 19.06 СЗ 6-11
{11}
10 км слаб. ливневой дождь 10/10 300 м
[Cb cap]
+3.4 +1.2 85 -2 -2 1005.0 996.2

 

Местоположение метеостанции Хорей-Вер (Ненецкий АО, Россия): широта 67.43 долгота 58.02 высота над уровнем моря 72 м.

В архиве по умолчанию представлена погода в Хорей-Вере за последнюю неделю. Архивные данные за месяц целиком и за предыдущие месяцы, начиная с января 2011 года, Вы можете получить, выбрав интересующий диапазон дат из раскрывающегося списка и нажав кнопку "Ввод!".


*Определитесь, кто Вы:
робот инопланетянин человек

Внимание! Время в таблицах - всемирное. Для получения местного времени необходимо прибавить поправку, которая равна 3 ч.

Смотрите также архив погоды в соседних городах и на ближайших метеорологических станциях:

Погода в Харуте (Ненецкий АО, Россия) (92 км)
Погода в Варандее (Ненецкий АО, Россия) (155 км)
Погода в Усинске (Коми, Россия) (158 км)
Погода на Мысе Константиновском (Ненецкий АО, Россия) (163 км)
Погода в Петруни (Коми, Россия) (163 км)
Погода в Усть-Усе (Коми, Россия) (169 км)
Погода в Мутном Материке (Коми, Россия) (207 км)
Погода в Нарьян-Маре (Ненецкий АО, Россия) (214 км)
Погода в Ходоварихе (Ненецкий АО, Россия) (243 км)
Погода в Воркуте (Коми, Россия) (254 км)

Пояснения к столбцам:

Ветер - указаны скорость ветра в м/с - средняя за 10 мин, порывы в срок и между сроками (в фигурных скобках) и направление, откуда дует ветер: С - северный, СВ - северо-восточный, В - восточный, ЮВ - юго-восточный, Ю - южный, ЮЗ - юго-западный, З - западный, СЗ - северо-западный.
Видимость - горизонтальная дальность видимости в метрах или километрах. При видимости от 1 до 10 км при отсутствии осадков обычно наблюдается дымка, при ухудшении видимости до 1 км и менее - туман. В сухую погоду видимость может ухудшаться дымом, пылью или мглою.
Явления - указаны атмосферные явления, наблюдавшиеся в срок или в последний час перед сроком; фигурными скобками обозначены явления, наблюдавшиеся между сроками (за 1-3 часа до срока); квадратными скобками обозначены град или гололедные отложения с указанием их диаметра в мм.
Облачность - указаны через наклонную черту общая и нижняя облачность в баллах и высота нижней границы облаков в метрах; квадратными скобками обозначены формы облаков: Ci - перистые, Cs - перисто-слоистые, Cc - перисто-кучевые, Ac - высококучевые, As - высокослоистые, Sc - слоисто-кучевые, Ns - слоисто-дождевые, Cu - кучевые, Cb - кучево-дождевые. Подробнее классификацию облаков см. в Атласе облаков (PDF).
T - Температура воздуха - температура, измеренная на высоте 2 м над землей.
Td - Температура точки росы - температура, при понижении до которой содержащийся в воздухе водяной пар достигнет насыщения.
f - Относительная влажность воздуха - влажноcть воздуха, измеренная на высоте 2 м над землей.
Te - Эффективная температура - температура, которую ощущает одетый по сезону человек в тени. Характеристика душности погоды. При расчете учитывается влияние влажности воздуха и скорости ветра на теплоощущения человека.
Tes - Эффективная температура на солнце - температура, которую ощущает человек, с поправкой на солнечный нагрев. Характеристика знойности погоды. Зависит от высоты солнца над горизонтом, облачности и скорости ветра. Ночью, в пасмурную погоду, а также при ветре 12 м/с и более поправка равна нулю.
P - Атмосферное давление - приведенное к уровню моря атмосферное давление.
Po - Атмосферное давление - измеренное на уровне метеостанции атмосферное давление.
Tmin - Минимальная температура - минимум температуры воздуха на высоте 2 м над землей.
Tmax - Максимальная температура - максимум температуры воздуха на высоте 2 м над землей.
R - Количество осадков - Количество выпавших осадков за период времени, мм. При наведении курсора мыши на число - период времени, за который выпало указанное количество осадков.
R24 - Количество осадков - Количество выпавших осадков за 24 часа, мм.
S - Снежный покров - Высота снежного покрова, см. При наведении курсора мыши на число - состояние снежного покрова и степень покрытия местности в баллах.